Espace membre
Imprimable
Lapugnoy, 16/02/2014, FRA - Trail des Givrés
Liste des rapports > 9km - Classement
Recherche: Page: [1]
26 Entrées
 
Les réclamations ne sont plus acceptées, les résultats sont considérés comme définitifs.
RangNrNomAgeIOCEquipeRéelTempsTkmMoy.ScrLocalité
1.2211FJEROME NATHALIE41FRA59:1859:206:36 9.1049DIVION
2.2202FMAILLARD CHRYSTELLE44FRA1:03:201:03:297:04 8.5174ANNEZIN
3.2014FTHIBAUT MARIE-MARLÈNE48FRASERVINS ATHLETIC CLUB1:05:161:05:227:16 8.2687REBREUVE-RANCHICOURT
4.2103FPAWLAK MARTINE46FRAAUBIGNY RUNNING1:07:391:07:527:33 7.96103SAVY BERLETTE
5.2137FMARIELLE DURETTE47FRA1:08:191:08:447:39 7.86107
6.2179FLETOR CHRISTEL43BEL1:08:541:09:157:42 7.80110IEPER
7.2050FDERNONCOURT VALERIE44FRA1:11:321:11:397:58 7.54127BRUAY LA BUISSIERE
8.2092FHONNART NADINE45FRAARCHERS PUNEENS1:11:251:11:407:58 7.54128ROBECQ
9.2091FDEPOORTER SABINE45FRAARCHERS PUNEENS1:11:381:11:538:00 7.51131CALONNE / LA LYS
10.2197FCLIQUENNOIS SABINE42FRAARCHERS PUNEENS1:11:391:11:538:00 7.51132CALONNE / LA LYS
11.2076FMELLIER EDWIGE45FRA1:11:401:11:548:00 7.51133MAREST
12.2106FSAPELIER BÉNÉDICTE40FRA1:11:351:11:578:00 7.51134BÉTHUNE
13.2073FDUPONT CHRISTELLE44FRAFC BOURS1:12:401:12:528:06 7.41138VALHUON
14.2177FCREPIN SYLVIE48FRA1:14:141:14:248:16 7.26144
15.2010FMALNOU ANNE41FRA1:14:121:14:268:17 7.26145MAISNIL LES RUITZ
16.2027FDELLISTE CATHY42FRA1:14:371:14:528:20 7.21148BETHUNE
17.2182FGRONIER MARIE LINE49FRA1:15:411:15:588:27 7.11153CUCQ
18.2201FCARTON VÉRONIQUE47FRA1:16:011:16:248:30 7.07154SALLAUMINES
19.2042FVANDEWYNCKEL CAROLINE40FRA1:16:421:16:598:34 7.02156BEUVRY
20.2007FDELIERS MARIE FRANCE45FRAARTOIS ATHLETISME1:16:561:17:128:35 7.00161DROUVIN LE MARAIS
21.2187FDELPORTE CECILE42FRA1:18:241:18:478:46 6.85167LEERS
22.2074FFARDEL LYDIE47FRAFC BOURS1:20:161:20:318:57 6.71171MAREST
23.2123FLEMAITRE CATHERINE44FRA1:21:371:21:429:05 6.61173LAPUGNOY
24.2065FROUSSEL MAGALIE42FRALES COUREURS DU LOUP BLAN1:26:351:26:569:40 6.21180NOEUX LES MINES
25.2080FTERNOY MARYVONNE46FRA1:27:331:27:539:46 6.15183LILLERS
26.2204FBERON CHRISTINE44FRA1:27:331:27:539:46 6.14184LILLERS
DNF: abandon; DSQ: disqualifié; Vitesse en km/h
Page: [1]